Lid_Strength_Index
-1 -1 -1 -1 -1 -2 -2 -2 -1 -1 -1 -1 -1 -1 -1 -1 -1 -1 -1 -1 -1 -1 -1 -1 -1 -1 1 5 5 0 -1 -0 2 2 4 4 6 6 7 6 6 7 7 6 6 6 7
-0 -0 -1 -1 -1 -1 -2 -2 -1 -1 -1 -1 -1 -1 -1 -1 -1 -1 -1 -1 -1 -1 -1 -1 -1 -1 3 9 0 -1 1 2 2 3 3 4 5 5 6 6 7 6 6 6 6 7 8
-0 -0 -0 -0 -1 -1 -2 -1 -1 -1 -1 -1 -1 -1 -1 -1 -1 -1 -1 -1 -1 -1 -1 -1 -1 0 4 5 -1 -1 0 2 1 2 3 3 3 5 5 7 5 6 8 7 6 6 7
-1 -1 -1 -1 -1 -1 -1 -1 -1 -1 -1 -1 -1 -1 -1 -1 -1 -1 -1 -1 -1 -1 -1 -1 -1 1 6 0 -1 0 -0 1 1 1 2 2 2 4 6 6 6 8 8 11 7 7 6
-2 -2 -1 -2 -2 -1 -1 -1 -1 -1 -1 -1 -1 -0 -1 -1 -1 -1 -1 -1 -1 -1 -1 -1 1 3 7 -0 3 0 0 3 2 1 2 1 3 6 6 9 11 10 13 12 10 7 8
-1 -1 -1 -1 -1 -1 -1 -1 -1 -1 -1 -1 -1 -1 -1 -1 -1 -1 -1 -1 -1 -1 -0 -0 1 6 4 6 2 1 0 1 4 4 5 5 7 10 10 11 16 14 13 12 11 8 8
-1 -1 -1 -1 -1 -1 -1 -1 -1 -1 -1 -1 -1 -1 -1 -1 -1 -1 -0 1 4 5 3 6 6 6 5 3 1 3 1 3 4 5 10 7 11 13 11 10 10 10 12 12 10 8 9
-1 -1 -1 -1 -1 -1 -1 -1 -1 -1 -1 -1 -1 -1 -1 -1 -1 -1 0 4 4 2 8 4 4 5 3 2 7 5 2 6 8 11 8 11 13 9 9 9 10 11 13 13 10 9 10
-1 -1 -1 -1 -1 -1 -1 -1 -1 -1 -1 -1 -1 -1 -1 -0 -1 0 2 3 0 0 8 7 5 5 5 4 7 7 4 6 9 11 11 12 11 8 9 11 12 12 13 13 13 11 10
-1 -1 -1 -1 -1 -1 -1 -1 -1 -0 -0 -0 -1 -1 -1 -1 2 1 3 1 1 1 11 11 8 6 5 5 8 4 3 6 8 11 10 11 8 10 11 12 10 14 9 10 11 13 17
-1 -1 -0 -0 -0 -0 -0 -1 -0 -0 -0 -1 -1 -1 -1 -1 2 4 2 0 2 2 20 9 8 3 4 7 7 7 3 6 10 10 9 11 11 11 12 11 9 11 9 10 11 13 13
-0 -0 -0 -0 -0 -0 -0 -0 -0 -0 -0 -0 -1 -0 -1 1 1 1 0 2 3 13 19 12 8 9 9 8 8 7 7 5 6 9 9 10 7 9 10 8 8 8 10 11 11 13 18
-0 -0 -0 -0 -0 -0 -0 -0 -0 -0 -0 -0 -0 -0 0 1 4 1 1 4 14 18 10 13 12 10 10 11 10 9 10 11 12 15 15 12 11 8 8 11 9 10 12 18 20 19 18
-0 0 0 0 -0 -0 -0 -0 -0 -0 -0 -0 -0 -0 0 1 1 1 3 10 17 13 13 9 9 10 12 10 10 10 11 13 10 11 14 16 17 11 8 10 12 12 12 16 21 20 16
0 0 0 0 0 0 0 -0 -0 -0 -0 -0 -0 1 2 1 -0 1 7 15 15 12 10 11 10 12 12 10 10 10 11 12 10 10 13 15 15 9 9 8 9 13 15 10 15 18 17
0 0 1 0 0 0 0 -0 -0 -0 -0 -0 2 3 4 2 1 3 10 13 12 9 8 9 13 11 14 13 12 11 12 9 10 8 8 11 15 10 9 8 8 10 9 16 16 21 21
1 1 1 1 1 0 0 -0 -0 -0 -0 -0 3 7 2 2 2 7 13 12 10 8 7 9 11 12 11 12 11 12 11 9 7 8 7 9 11 13 10 12 12 13 14 13 13 16 20
1 1 1 1 1 0 0 0 -0 -0 -0 1 5 10 3 3 9 9 12 10 8 8 7 8 8 9 11 10 11 11 12 9 6 7 11 9 11 15 13 10 9 9 12 12 17 17 15
1 1 1 1 0 0 0 0 -0 -0 -0 3 8 7 3 3 13 12 10 9 8 9 9 9 10 8 8 10 13 10 10 7 7 8 9 9 12 16 14 12 10 12 11 10 11 13 16
0 0 0 0 0 0 0 0 -0 -0 -0 2 7 11 8 6 7 10 11 11 11 8 9 8 9 8 9 11 10 11 10 8 7 7 7 7 11 13 15 12 10 13 12 11 12 16 15
0 0 0 0 0 0 0 0 0 -0 -0 2 8 11 11 13 11 9 9 10 11 11 8 8 10 9 10 13 12 12 10 9 8 7 7 8 14 11 11 10 11 12 13 11 12 12 14
0 0 0 0 0 0 0 0 -0 -0 -0 6 10 11 10 11 9 9 9 11 11 11 9 11 10 9 9 11 10 12 10 9 10 9 9 9 14 12 14 11 11 13 11 11 12 13 13
0 0 0 0 0 0 0 -0 -0 -0 2 8 8 7 7 9 9 10 10 10 10 9 9 8 8 9 10 9 7 7 6 7 8 9 10 10 12 14 16 12 13 16 12 11 10 10 10
0 0 0 0 0 0 0 -0 -0 -0 2 5 5 5 9 12 10 11 9 9 10 9 11 8 7 9 8 5 6 7 8 7 8 8 8 11 12 13 15 14 20 11 8 8 10 9 8
0 0 0 0 -0 -0 0 1 1 1 1 6 7 6 9 12 11 10 10 11 9 9 10 9 8 7 5 7 10 13 13 12 11 9 9 8 11 14 16 16 13 12 11 10 11 11 7
0 0 0 0 1 1 2 2 2 3 4 7 8 7 8 11 12 10 10 9 11 11 10 10 8 7 6 9 11 15 16 15 16 14 10 9 9 13 15 17 18 12 9 7 7 13 7
1 1 1 1 1 1 2 2 3 3 4 6 9 8 7 11 12 11 10 10 9 10 11 10 9 9 8 12 14 15 15 15 15 16 14 13 13 15 15 16 14 11 9 7 14 14 7
1 1 2 2 2 2 2 2 2 3 3 6 9 7 8 11 12 13 12 10 10 9 10 10 9 10 11 12 13 14 14 14 14 12 13 13 14 15 14 16 18 8 9 11 9 7 7
1 1 2 2 2 1 2 2 2 3 3 4 8 7 6 10 11 11 12 11 11 9 9 10 9 11 9 11 13 13 14 14 14 14 11 13 10 13 12 12 8 7 7 9 9 10 11